Location: La Silve
(44.2414°N, 5.8889°E)
Time: 20:00:32
(UTC+00:00)

Tiangong - Pass Details

Date: 01 July 2021
Orbit: 373 x 386 km, 41.5° (Epoch: 29 July)

Event Time Altitude Azimuth Distance (km) Brightness Sun altitude
Exits shadow 02:54:07 14° 222° (SW) 1,159 2.8 -9.4°
Maximum altitude 02:54:45 15° 207° (SSW) 1,127 2.8 -9.3°
Drops below altitude 10° 02:56:37 10° 170° (S) 1,382 3.5 -9.1°
Sets 02:59:17 0° 146° (SE) 2,234 4.8 -8.8°
